Location: Haliburton Scout Reserve
(45.0900°N, 78.3200°W)
Time: 04:30:03
(UTC-04:00)

PCSat - Pass Details

Date: 28 May 2022
Orbit: 784 x 795 km, 67.1° (Epoch: 24 June)

Event Time Altitude Azimuth Distance (km) Brightness Sun altitude
Rises 00:43:49 0° 334° (NNW) 3,305 14.0 -23.2°
Reaches altitude 10° 00:46:52 10° 351° (N) 2,373 13.2 -23.2°
Maximum altitude 00:50:54 21° 39° (NE) 1,745 11.8 -23.3°
Drops below altitude 10° 00:54:54 10° 87° (E) 2,363 12.0 -23.4°
Enters shadow 00:57:19 - 101° (E) 3,086 12.5 -23.4°
